Lapse_Rate
-3.7 -3.8 -3.8 -3.7 -3.6 -3.2 -2.9 -2.5 -2.3 -2.8 -3.1 -3.2 -2.8 -2.8 -2.5 -2.0 -1.1 0.1 0.6 2.5 3.6 4.2
-3.0 -3.0 -3.2 -3.1 -2.8 -2.2 -1.7 -0.4 -1.3 -2.3 -3.0 -2.7 -2.6 -2.6 -2.4 -2.4 -1.9 -0.9 -0.1 2.3 3.4 3.5
-2.6 -2.5 -2.1 -1.5 -1.4 -1.1 -0.8 -0.7 -1.1 -1.7 -2.2 -2.1 -2.5 -2.4 -2.2 -2.1 -1.7 -1.2 -0.3 1.2 1.9 2.8
-1.6 -1.2 -0.5 -0.6 -1.2 -1.2 -1.0 -1.1 -1.0 -1.2 -1.7 -2.0 -2.2 -2.6 -2.1 -1.9 -2.3 -1.7 -0.5 -0.3 1.0 1.5
-0.8 -0.6 0.3 -1.0 -1.5 -2.0 -2.2 -1.6 -1.4 -1.0 -1.4 -1.9 -1.9 -2.7 -3.0 -2.0 -2.3 -2.9 -2.4 -2.2 -0.7 0.4
-0.2 -1.3 -2.6 -3.0 -2.8 -2.6 -2.7 -3.2 -2.6 -2.5 -2.4 -2.4 -2.8 -2.2 -3.4 -2.8 -2.6 -2.7 -3.0 -3.5 -2.0 -1.2
0.3 0.6 0.2 -2.7 -1.2 -1.8 -0.9 -1.8 -3.2 -3.6 -4.5 -3.8 -2.8 -1.3 -1.0 -1.7 -3.3 -3.2 -2.3 -2.4 -1.1 0.4
1.2 1.2 1.3 0.8 0.3 0.4 0.7 0.3 -0.6 -1.1 -1.9 -1.7 -0.7 1.6 1.0 1.0 -1.7 -1.4 -0.4 -0.9 -0.2 1.9
2.2 2.1 1.7 1.3 1.2 1.3 0.7 0.6 0.9 1.3 1.5 -0.7 2.9 3.5 3.2 2.2 1.0 0.1 1.0 1.0 1.3 2.0
2.8 2.6 2.1 2.0 1.7 1.4 0.8 0.9 0.9 1.1 1.4 1.6 2.5 3.7 3.6 3.2 2.7 2.3 2.5 2.7 2.6 3.2
3.1 2.8 2.6 2.3 1.8 1.5 1.4 1.1 1.0 1.0 1.1 1.6 3.3 3.8 3.8 3.7 3.0 2.8 3.2 3.7 3.9 3.7
3.4 3.0 2.8 2.4 1.8 1.8 1.8 1.4 1.5 1.4 1.2 1.2 2.2 3.6 3.7 3.7 2.9 3.6 3.6 5.0 6.3 4.3
3.5 3.5 2.7 2.3 2.2 2.4 2.5 3.1 2.9 2.5 0.6 2.4 1.1 4.2 4.2 3.6 4.3 2.6 4.1 4.4 4.8 8.1
3.5 3.4 2.9 2.5 2.5 2.5 2.5 1.2 -2.3 -3.2 -3.8 -2.2 0.2 1.4 5.3 5.0 3.5 1.7 3.5 3.4 3.7 5.0
Wind_Speed
6 4 4 5 4 4 4 4 10 11 12 13 13 13 12 6 7 9 8 12 10 7
5 7 6 6 5 3 4 6 9 11 12 12 13 13 11 6 9 8 8 10 11 9
7 7 6 4 5 4 5 8 9 11 12 12 13 13 11 8 9 9 9 8 12 11
7 6 5 4 4 4 6 9 8 10 9 8 9 13 9 9 11 11 12 11 13 14
6 6 5 4 4 7 6 9 9 9 8 8 8 10 9 10 9 9 11 11 12 13
7 6 4 4 4 7 7 7 8 7 5 6 6 7 6 7 8 9 10 9 9 8
7 7 6 3 5 5 7 5 5 6 3 3 5 6 5 6 7 6 7 7 7 9
7 6 6 5 5 5 5 6 7 5 6 6 3 5 6 7 6 7 8 7 8 10
8 7 6 6 5 5 5 5 4 5 5 5 5 14 14 10 6 6 9 10 10 10
8 7 6 6 6 5 5 5 5 5 5 5 4 13 15 15 8 8 9 10 10 10
8 8 7 7 6 5 4 4 4 5 5 4 5 12 13 12 8 7 8 9 10 11
8 9 7 7 6 4 4 4 4 5 5 5 4 13 12 10 5 8 8 9 11 11
8 9 8 7 6 4 4 5 4 5 5 9 5 12 13 10 5 6 6 6 8 20
8 8 8 7 4 4 5 5 4 3 3 4 7 6 10 10 4 2 3 4 3 3
Wind_Direction
84 87 76 65 51 34 20 18 9 18 26 20 15 15 16 15 14 8 358 7 6 360
86 76 73 57 51 31 16 32 21 30 33 22 18 19 20 19 14 12 5 14 7 12
96 79 72 64 58 43 29 32 33 36 34 28 24 20 21 23 13 20 22 23 20 15
104 91 77 75 60 47 48 37 37 40 38 35 31 22 24 22 20 29 31 26 24 19
115 103 91 80 71 60 52 42 47 44 47 43 35 28 26 21 13 19 21 13 18 19
124 112 112 102 81 68 62 50 52 54 48 42 31 23 16 16 12 10 13 3 5 3
142 140 141 118 87 71 56 48 40 41 43 33 39 34 10 21 10 5 10 358 3 15
124 122 129 111 88 74 61 45 39 41 31 27 41 63 39 24 9 16 21 16 22 32
127 123 118 108 95 82 64 47 36 38 34 22 53 54 50 45 30 24 32 31 27 33
133 126 118 116 105 88 72 58 43 32 26 35 42 51 51 46 41 44 42 42 34 37
136 129 127 118 107 96 83 69 61 39 28 17 54 50 52 47 41 43 51 52 46 42
142 138 138 128 123 117 102 82 70 52 28 29 29 56 53 54 38 45 36 38 60 50
143 145 145 140 136 129 123 100 86 74 31 34 6 64 57 53 53 51 38 25 26 53
144 146 146 138 130 126 105 95 72 72 9 20 7 15 66 63 62 57 44 30 7 8